Home   Weather   Edmonton   Past weeks

Flag for Canada Past Weather in Edmonton, Alberta, Canada — Yesterday and Last 2 Weeks

Now
46 °F

Cool.


Feels Like: 41 °F
Forecast: 37 / 51 °F
Wind: 9 mph from Southeast

Location: Edmonton Municipal

Current Time: Apr 30, 2017 at 1:13:45 am

Latest Report: Apr 30, 2017 at 12:00 am


Visibility: N/A

Pressure: 29.87 "Hg (27.46 "Hg at 692m altitude)

Humidity: 57%

Dew Point: 31 °F

Location of EdmontonLocation

Past Weather in Edmonton — Graph

°F

Edmonton Temperature Yesterday

Maximum temperature yesterday: 56 °F (at 2:00 pm)
Minimum temperature yesterday: 34 °F (at 6:00 am)
Average temperature yesterday: 46 °F

High & Low Weather Summary for the Past Weeks

 TemperatureHumidityPressure
High59 °F (Apr 20, 5:00 pm)100% (Apr 15, 12:00 am)30.44 "Hg (Apr 15, 12:00 am)
Low22 °F (Apr 16, 7:00 am)32% (Apr 29, 2:00 pm)29.78 "Hg (Apr 14, 11:00 pm)
Average36 °F80%30.04 "Hg
* Reported Apr 14 11:00 pm — Apr 29 11:00 pm, Edmonton, Weather by CustomWeather, © 2017

Note: Actual official high and low records may vary slightly from our data, if they occured in-between our weather recording intervals... More about our weather records

Advertising

Edmonton Weather History for the Previous 24 Hours

Scroll right to see more
 ConditionsComfort  
Time TempWeatherWind HumidityBarometerVisibility
11:00 pm
Sat, Apr 29
47 °FCool.9 mph56%29.90 "HgN/A
10:00 pm48 °FCool.8 mph47%29.91 "HgN/A
9:00 pm49 °FCool.12 mph45%29.92 "HgN/A
8:00 pm51 °FCool.12 mph43%29.94 "HgN/A
7:00 pm55 °FCool.6 mph35%29.96 "HgN/A
6:00 pm54 °FCool.8 mph35%29.98 "HgN/A
5:00 pm54 °FCool.9 mph40%30.00 "HgN/A
4:00 pm51 °FCool.13 mph47%30.02 "HgN/A
3:00 pm49 °FCool.12 mph51%30.04 "HgN/A
2:00 pm56 °FRefreshingly cool.6 mph32%30.03 "HgN/A
1:00 pm54 °FCool.6 mph39%30.06 "HgN/A
12:00 pm54 °FCool.5 mph37%30.09 "HgN/A
11:00 am50 °FCool.5 mph58%30.11 "HgN/A
10:00 am46 °FCool.6 mph69%30.13 "HgN/A
9:00 am44 °FQuite cool.3 mph67%30.13 "HgN/A
8:00 am38 °FChilly.3 mph74%30.14 "HgN/A
7:00 am34 °FChilly.2 mph81%30.14 "HgN/A
6:00 am34 °FChilly.3 mph79%30.15 "HgN/A
5:00 am35 °FChilly.5 mph77%30.15 "HgN/A
4:00 am36 °FChilly.3 mph74%30.14 "HgN/A
3:00 am37 °FChilly.6 mph69%30.14 "HgN/A
2:00 am40 °FChilly.6 mph64%30.15 "HgN/A
1:00 am40 °FQuite cool.6 mph62%30.15 "HgN/A
Weather by CustomWeather, © 2017

See weather overviewHow to use our weather pages